Change the Weather History Date:

Sunday, November 11, 2012

  Actual Average Record
Temperature  
Mean Temperature 58 °F -  
Max Temperature 66 °F 60 °F 77 °F (2000)
Min Temperature 50 °F 47 °F 39 °F (2007)
Degree Days  
Heating Degree Days 7    
Growing Degree Days 8 (Base 50)    
Moisture  
Dew Point 44 °F    
Average Humidity 60    
Maximum Humidity 82    
Minimum Humidity 43    
Precipitation  
Precipitation 0.00 in - - ()
Sea Level Pressure  
Sea Level Pressure 30.24 in    
Wind  
Wind Speed 6 mph ()    
Max Wind Speed 14 mph    
Max Gust Speed -    
Visibility 6.2 miles    
Events      
Averages and records for this station are not official NWS values.
T = Trace of Precipitation, MM = Missing Value Source: Averaged Metar Reports

Daily Weather History Graph

Daily Weather History Graph

Search for Another Location

Airport or City:

Trip Planner

Search our weather history database for the weather conditions in past years. The results will help you decide how hot, cold, wet, or windy it might be!

Date:

Astronomy

Nov. 11, 2012 Rise Set
Actual Time 7:02 AM EET 5:16 PM EET
Civil Twilight 6:34 AM EET 5:44 PM EET
Nautical Twilight 6:02 AM EET 6:16 PM EET
Astronomical Twilight 5:31 AM EET 6:47 PM EET
Moon 3:56 AM EET (11/11) 3:26 PM EET (11/11)
Length of Visible Light 11h 10m
Length of Day
10h 14m
Waning Crescent, 9% of the Moon is Illuminated
Nov 11
Waning Crescent
Nov 14
New
Nov 20
First Quarter
Nov 28
Full
Dec 6
Last Quarter

Hourly Weather History & Observations

Time (EET) Temp. Dew Point Humidity Pressure Visibility Wind Dir Wind Speed Gust Speed Precip Events Conditions
12:50 AM 51.8 °F 44.6 °F 76% 30.21 in 6.2 mi NNW 4.6 mph - N/A   Partly Cloudy
1:50 AM 51.8 °F 44.6 °F 76% 30.21 in 6.2 mi Calm Calm - N/A   Partly Cloudy
2:50 AM 51.8 °F 44.6 °F 76% 30.21 in 6.2 mi WNW 5.8 mph - N/A   Partly Cloudy
3:50 AM 51.8 °F 44.6 °F 76% 30.21 in 6.2 mi NNW 8.1 mph - N/A   Partly Cloudy
4:50 AM 50.0 °F 44.6 °F 82% 30.21 in 6.2 mi North 4.6 mph - N/A   Partly Cloudy
5:20 AM 50.0 °F 44.6 °F 82% 30.21 in 6.2 mi North 4.6 mph - N/A   Partly Cloudy
5:50 AM 50.0 °F 44.6 °F 82% 30.21 in 6.2 mi Calm Calm - N/A   Partly Cloudy
6:20 AM 50.0 °F 44.6 °F 82% 30.21 in 6.2 mi Calm Calm - N/A   Partly Cloudy
6:50 AM 53.6 °F 44.6 °F 72% 30.21 in 6.2 mi Calm Calm - N/A   Partly Cloudy
7:20 AM 57.2 °F 44.6 °F 63% 30.24 in 6.2 mi Variable 3.5 mph - N/A   Partly Cloudy
7:50 AM 55.4 °F 44.6 °F 67% 30.24 in 6.2 mi Variable 2.3 mph - N/A   Partly Cloudy
8:20 AM 57.2 °F 44.6 °F 63% 30.24 in 6.2 mi NW 9.2 mph - N/A   Partly Cloudy
8:50 AM 59.0 °F 44.6 °F 59% 30.24 in 6.2 mi NNW 6.9 mph - N/A   Partly Cloudy
9:20 AM 60.8 °F 44.6 °F 55% 30.27 in 6.2 mi North 5.8 mph - N/A   Partly Cloudy
9:50 AM 62.6 °F 44.6 °F 52% 30.27 in 6.2 mi NNW 6.9 mph - N/A   Partly Cloudy
10:20 AM 64.4 °F 44.6 °F 49% 30.27 in 6.2 mi NNW 10.4 mph - N/A   Partly Cloudy
10:50 AM 64.4 °F 44.6 °F 49% 30.27 in 6.2 mi NNW 8.1 mph - N/A   Partly Cloudy
11:20 AM 64.4 °F 44.6 °F 49% 30.27 in 6.2 mi NNW 10.4 mph - N/A   Partly Cloudy
11:50 AM 64.4 °F 44.6 °F 49% 30.24 in 6.2 mi NNW 9.2 mph - N/A   Partly Cloudy
12:20 PM 66.2 °F 42.8 °F 43% 30.24 in 6.2 mi NNW 11.5 mph - N/A   Partly Cloudy
12:50 PM 66.2 °F 42.8 °F 43% 30.24 in 6.2 mi NNW 9.2 mph - N/A   Scattered Clouds
1:20 PM 66.2 °F 42.8 °F 43% 30.21 in 6.2 mi North 10.4 mph - N/A   Scattered Clouds
1:50 PM 66.2 °F 44.6 °F 46% 30.21 in 6.2 mi North 10.4 mph - N/A   Scattered Clouds
2:20 PM 66.2 °F 42.8 °F 43% 30.21 in 6.2 mi NNW 11.5 mph - N/A   Scattered Clouds
2:50 PM 66.2 °F 44.6 °F 46% 30.21 in 6.2 mi NNW 10.4 mph - N/A   Scattered Clouds
3:20 PM 64.4 °F 44.6 °F 49% 30.21 in 6.2 mi NNW 11.5 mph - N/A   Scattered Clouds
3:50 PM 64.4 °F 44.6 °F 49% 30.21 in 6.2 mi North 10.4 mph - N/A   Scattered Clouds
4:20 PM 64.4 °F 44.6 °F 49% 30.21 in 6.2 mi NNW 11.5 mph - N/A   Scattered Clouds
4:50 PM 62.6 °F 44.6 °F 52% 30.21 in 6.2 mi NNW 8.1 mph - N/A   Mostly Cloudy
5:20 PM 62.6 °F 44.6 °F 52% 30.21 in 6.2 mi NNW 6.9 mph - N/A   Mostly Cloudy
5:50 PM 59.0 °F 44.6 °F 59% 30.24 in 6.2 mi NNW 4.6 mph - N/A   Mostly Cloudy
6:20 PM 59.0 °F 44.6 °F 59% 30.24 in 6.2 mi NNW 9.2 mph - N/A   Scattered Clouds
6:50 PM 59.0 °F 44.6 °F 59% 30.24 in 6.2 mi NW 6.9 mph - N/A   Scattered Clouds
7:20 PM 59.0 °F 44.6 °F 59% 30.27 in 6.2 mi NW 5.8 mph - N/A   Partly Cloudy
7:50 PM 59.0 °F 44.6 °F 59% 30.27 in 6.2 mi NNW 6.9 mph - N/A   Partly Cloudy
8:20 PM 57.2 °F 44.6 °F 63% 30.27 in 6.2 mi NNW 5.8 mph - N/A   Partly Cloudy
8:50 PM 57.2 °F 44.6 °F 63% 30.27 in 6.2 mi NNW 6.9 mph - N/A   Partly Cloudy
9:20 PM 55.4 °F 44.6 °F 67% 30.30 in - NNW 9.2 mph - N/A   Clear
9:50 PM 55.4 °F 44.6 °F 67% 30.27 in - North 6.9 mph - N/A   Clear
10:20 PM 55.4 °F 44.6 °F 67% 30.27 in - NNW 8.1 mph - N/A   Clear
10:50 PM 55.4 °F 44.6 °F 67% 30.27 in - NW 5.8 mph - N/A   Clear
11:50 PM 55.4 °F 44.6 °F 67% 30.27 in - NNW 13.8 mph - N/A   Clear